SCP
0 0 -0 0 0 0 0 -0 0 -0 -0 -0 -0 -0 -0 -0 0 0 -0 -0 0 0 0 0 0 0 -0 0 0 0 0 0
0 0 0 0 0 0 0 -0 -0 0 -0 0 -0 -0 0 -0 0 0 -0 0 0 0 0 0 0 0 0 0 0 0 0 0
0 0 0 0 0 0 0 0 0 -0 -0 0 -0 -0 -0 -0 -0 0 -0 0 0 0 0 0 0 0 0 0 0 0 -0 -0
0 0 0 0 0 0 0 -0 0 0 -0 0 0 -0 -0 -0 -0 0 0 0 0 0 0 0 0 0 0 0 0 0 0 0
0 0 0 0 0 0 0 0 0 0 0 0 -0 0 0 0 -0 0 0 0 0 0 0 0 0 0 0 0 0 0 0 0
-0 0 0 0 0 0 0 0 0 0 -0 -0 -0 -0 0 0 0 -0 -0 -0 0 0 0 0 0 0 0 0 0 0 0 0
0 0 0 0 0 0 0 0 0 0 0 0 0 0 0 0 -0 0 -0 -0 -0 0 0 0 0 0 0 0 0 0 0 0
0 0 0 0 0 0 0 0 0 0 0 0 0 0 0 0 0 0 0 -0 -0 0 0 0 1 0 0 1 1 0 0 0
0 0 0 0 0 0 0 0 0 0 0 0 0 0 0 0 0 0 0 0 -0 -0 1 1 0 0 0 1 1 1 1 1
0 0 0 0 0 0 0 0 0 0 0 0 0 0 0 0 0 0 0 0 0 0 0 1 0 0 1 1 1 1 1 1
0 0 0 0 0 0 0 0 0 0 0 0 0 0 0 0 0 0 0 0 0 0 0 0 1 1 1 0 1 1 0 1
0 0 0 0 0 0 0 0 0 0 0 0 0 0 0 0 0 0 0 0 0 0 -0 -0 -0 1 1 1 1 1 1 0
0 0 0 0 0 0 0 0 0 0 0 0 0 0 0 0 0 0 0 0 0 0 0 0 0 -0 -0 0 0 0 0 0
0 0 0 0 0 0 0 0 0 0 0 0 0 0 0 0 0 0 0 0 0 0 0 0 0 0 0 0 0 0 0 0
0 0 0 0 0 0 0 0 0 0 0 0 0 0 0 0 0 0 0 0 0 0 0 0 0 0 0 0 0 0 0 0
0 0 0 0 0 0 0 0 0 0 0 0 0 0 0 0 0 0 0 0 0 0 0 0 0 0 0 0 0 0 0 0
0 0 0 -0 0 0 0 0 0 0 0 0 0 0 -0 0 0 0 0 0 0 0 0 0 0 0 0 0 0 0 0 0
0 0 0 0 0 0 0 0 0 0 0 0 0 0 0 0 0 0 0 0 0 0 0 0 0 0 0 0 0 0 0 0
0 0 0 -0 -0 -0 0 0 0 0 0 0 0 0 0 0 0 0 0 0 0 0 0 0 0 0 0 0 0 0 0 0
Wind_Speed_500mb
10 10 21 21 18 22 17 11 10 7 11 18 4 15 19 21 41 53 67 62 56 53 50 48 47 47 46 43 42 41 40 41
16 14 19 23 12 18 18 9 10 10 7 12 13 7 17 18 27 53 73 63 60 53 49 49 49 45 42 42 42 41 40 41
11 18 12 16 21 23 11 16 1 7 7 12 1 4 6 14 23 32 63 59 55 54 50 48 50 47 44 42 41 42 42 41
13 11 10 24 23 29 17 19 10 10 1 9 8 3 16 21 12 19 32 57 52 53 52 47 50 49 48 45 44 42 41 42
25 20 16 17 14 23 21 29 19 12 2 9 14 14 8 14 11 11 28 44 54 51 53 50 50 52 49 47 44 41 41 42
24 15 17 8 15 13 25 22 23 19 27 11 7 15 13 10 12 20 34 52 53 62 65 54 50 52 52 47 44 41 40 41
25 20 18 19 20 14 23 20 17 9 17 10 5 1 7 6 8 6 18 26 39 58 62 53 49 47 51 47 46 43 42 42
24 21 21 27 25 19 18 14 22 12 19 3 7 8 3 10 15 13 2 12 22 39 47 50 45 46 41 42 43 42 41 41
21 6 17 23 30 27 25 11 19 20 13 8 8 7 7 9 13 13 13 2 13 24 30 34 40 34 35 35 37 53 48 42
18 9 22 4 9 11 17 19 17 21 10 5 7 11 7 8 9 9 4 8 7 11 22 26 22 30 27 29 38 34 32 40
13 20 15 15 10 15 19 24 15 15 5 6 7 11 5 7 7 4 7 9 11 17 17 27 32 27 25 32 40 48 55 40
17 14 16 11 14 2 9 23 23 11 8 11 9 14 12 6 5 6 10 16 20 23 29 31 26 29 34 30 25 32 33 28
17 13 16 9 3 5 13 4 9 13 13 16 10 13 10 7 10 12 12 19 23 27 31 34 36 30 25 27 31 34 27 21
4 10 19 8 6 15 10 6 12 17 15 12 11 12 10 9 11 15 19 18 19 24 26 27 33 28 27 26 25 23 20 18
6 12 3 4 16 9 15 12 3 16 13 18 19 17 12 12 14 17 19 22 22 22 24 22 20 23 26 26 20 24 20 13
6 11 13 15 22 24 25 18 10 14 23 24 20 19 16 13 14 15 22 26 24 21 23 26 25 21 21 27 23 16 11 10
18 26 16 21 17 12 20 18 16 24 26 28 24 26 21 18 17 17 20 25 29 30 31 33 30 24 28 26 19 13 16 17
16 13 9 4 12 8 11 19 21 23 28 28 29 26 26 22 20 20 22 23 26 29 33 34 32 33 32 31 24 22 23 24
22 6 13 21 21 22 27 16 11 13 19 34 31 30 25 25 22 24 23 26 26 28 29 30 29 29 30 29 26 26 24 24
Wind_Direction_500mb
194 193 238 170 232 264 278 171 280 132 241 245 203 179 180 212 195 208 208 209 205 206 205 201 201 202 201 202 204 208 207 212
131 221 238 263 274 213 232 222 227 102 286 292 192 97 153 204 247 202 203 207 203 205 205 203 204 203 203 204 206 207 207 212
186 210 225 184 231 246 127 309 138 216 77 18 44 9 174 209 237 200 200 202 208 207 209 205 203 202 204 204 205 207 209 211
237 77 306 286 279 221 236 234 230 327 244 83 59 70 193 166 130 200 213 202 203 209 209 209 203 202 202 204 206 207 209 212
236 178 200 240 209 260 275 286 260 277 133 106 100 94 70 150 89 336 263 229 222 214 208 208 207 203 202 204 206 207 206 209
290 359 336 219 213 245 253 246 250 216 261 144 121 119 108 111 141 214 237 240 222 219 218 210 206 207 204 205 206 207 207 207
283 285 277 273 282 240 256 263 283 21 263 277 207 104 58 38 48 179 226 224 220 210 211 208 204 203 204 204 208 207 210 212
280 264 266 259 241 247 264 278 270 257 275 36 192 189 77 27 15 16 297 205 207 203 207 210 202 205 203 205 207 210 213 220
279 30 278 252 248 237 257 273 283 268 23 164 182 182 46 34 35 10 18 219 198 202 207 211 208 205 203 202 215 218 220 224
274 268 242 34 5 303 283 278 272 280 278 284 71 106 72 35 56 20 42 95 127 177 195 210 195 212 210 223 217 227 238 239
262 255 261 262 210 234 236 252 221 268 197 157 147 134 103 48 51 59 46 102 105 144 143 193 217 209 218 244 214 225 242 238
263 285 267 54 46 296 279 259 226 220 173 178 197 240 102 103 87 108 81 113 113 131 144 147 152 168 183 189 194 209 221 217
256 244 274 82 153 207 237 57 310 200 178 171 225 23 99 125 110 117 146 111 113 120 126 129 129 136 152 175 180 180 180 192
256 262 262 52 174 252 7 325 270 215 190 159 125 114 120 136 122 117 126 142 136 127 117 127 125 129 132 139 134 131 138 136
290 318 41 256 268 271 274 298 312 206 178 150 147 132 131 123 112 111 125 131 133 137 131 121 123 123 145 140 130 131 138 147
266 219 268 269 256 250 244 247 206 167 154 151 147 129 131 122 110 108 111 121 125 145 146 143 135 134 126 139 148 140 130 139
252 262 256 250 246 242 226 224 184 170 170 153 147 154 154 143 121 113 108 110 119 121 117 112 117 130 138 145 150 151 145 134
281 6 277 57 157 139 172 180 179 176 156 154 160 158 148 137 131 128 117 114 113 111 117 118 118 119 115 114 121 129 132 130
285 185 152 150 139 130 129 119 148 161 189 154 156 152 145 137 134 126 122 118 117 116 114 114 114 118 119 116 118 123 126 127
Wind_Speed_850mb
10 10 21 21 18 22 17 11 10 7 11 18 4 15 19 21 41 53 67 62 56 53 50 48 47 47 46 43 42 41 40 41
16 14 19 23 12 18 18 9 10 10 7 12 13 7 17 18 27 53 73 63 60 53 49 49 49 45 42 42 42 41 40 41
11 18 12 16 21 23 11 16 1 7 7 12 1 4 6 14 23 32 63 59 55 54 50 48 50 47 44 42 41 42 42 41
13 11 10 24 23 29 17 19 10 10 1 9 8 3 16 21 12 19 32 57 52 53 52 47 50 49 48 45 44 42 41 42
25 20 16 17 14 23 21 29 19 12 2 9 14 14 8 14 11 11 28 44 54 51 53 50 50 52 49 47 44 41 41 42
24 15 17 8 15 13 25 22 23 19 27 11 7 15 13 10 12 20 34 52 53 62 65 54 50 52 52 47 44 41 40 41
25 20 18 19 20 14 23 20 17 9 17 10 5 1 7 6 8 6 18 26 39 58 62 53 49 47 51 47 46 43 42 42
24 21 21 27 25 19 18 14 22 12 19 3 7 8 3 10 15 13 2 12 22 39 47 50 45 46 41 42 43 42 41 41
21 6 17 23 30 27 25 11 19 20 13 8 8 7 7 9 13 13 13 2 13 24 30 34 40 34 35 35 37 53 48 42
18 9 22 4 9 11 17 19 17 21 10 5 7 11 7 8 9 9 4 8 7 11 22 26 22 30 27 29 38 34 32 40
13 20 15 15 10 15 19 24 15 15 5 6 7 11 5 7 7 4 7 9 11 17 17 27 32 27 25 32 40 48 55 40
17 14 16 11 14 2 9 23 23 11 8 11 9 14 12 6 5 6 10 16 20 23 29 31 26 29 34 30 25 32 33 28
17 13 16 9 3 5 13 4 9 13 13 16 10 13 10 7 10 12 12 19 23 27 31 34 36 30 25 27 31 34 27 21
4 10 19 8 6 15 10 6 12 17 15 12 11 12 10 9 11 15 19 18 19 24 26 27 33 28 27 26 25 23 20 18
6 12 3 4 16 9 15 12 3 16 13 18 19 17 12 12 14 17 19 22 22 22 24 22 20 23 26 26 20 24 20 13
6 11 13 15 22 24 25 18 10 14 23 24 20 19 16 13 14 15 22 26 24 21 23 26 25 21 21 27 23 16 11 10
18 26 16 21 17 12 20 18 16 24 26 28 24 26 21 18 17 17 20 25 29 30 31 33 30 24 28 26 19 13 16 17
16 13 9 4 12 8 11 19 21 23 28 28 29 26 26 22 20 20 22 23 26 29 33 34 32 33 32 31 24 22 23 24
22 6 13 21 21 22 27 16 11 13 19 34 31 30 25 25 22 24 23 26 26 28 29 30 29 29 30 29 26 26 24 24
Wind_Direction_850mb
194 193 238 170 232 264 278 171 280 132 241 245 203 179 180 212 195 208 208 209 205 206 205 201 201 202 201 202 204 208 207 212
131 221 238 263 274 213 232 222 227 102 286 292 192 97 153 204 247 202 203 207 203 205 205 203 204 203 203 204 206 207 207 212
186 210 225 184 231 246 127 309 138 216 77 18 44 9 174 209 237 200 200 202 208 207 209 205 203 202 204 204 205 207 209 211
237 77 306 286 279 221 236 234 230 327 244 83 59 70 193 166 130 200 213 202 203 209 209 209 203 202 202 204 206 207 209 212
236 178 200 240 209 260 275 286 260 277 133 106 100 94 70 150 89 336 263 229 222 214 208 208 207 203 202 204 206 207 206 209
290 359 336 219 213 245 253 246 250 216 261 144 121 119 108 111 141 214 237 240 222 219 218 210 206 207 204 205 206 207 207 207
283 285 277 273 282 240 256 263 283 21 263 277 207 104 58 38 48 179 226 224 220 210 211 208 204 203 204 204 208 207 210 212
280 264 266 259 241 247 264 278 270 257 275 36 192 189 77 27 15 16 297 205 207 203 207 210 202 205 203 205 207 210 213 220
279 30 278 252 248 237 257 273 283 268 23 164 182 182 46 34 35 10 18 219 198 202 207 211 208 205 203 202 215 218 220 224
274 268 242 34 5 303 283 278 272 280 278 284 71 106 72 35 56 20 42 95 127 177 195 210 195 212 210 223 217 227 238 239
262 255 261 262 210 234 236 252 221 268 197 157 147 134 103 48 51 59 46 102 105 144 143 193 217 209 218 244 214 225 242 238
263 285 267 54 46 296 279 259 226 220 173 178 197 240 102 103 87 108 81 113 113 131 144 147 152 168 183 189 194 209 221 217
256 244 274 82 153 207 237 57 310 200 178 171 225 23 99 125 110 117 146 111 113 120 126 129 129 136 152 175 180 180 180 192
256 262 262 52 174 252 7 325 270 215 190 159 125 114 120 136 122 117 126 142 136 127 117 127 125 129 132 139 134 131 138 136
290 318 41 256 268 271 274 298 312 206 178 150 147 132 131 123 112 111 125 131 133 137 131 121 123 123 145 140 130 131 138 147
266 219 268 269 256 250 244 247 206 167 154 151 147 129 131 122 110 108 111 121 125 145 146 143 135 134 126 139 148 140 130 139
252 262 256 250 246 242 226 224 184 170 170 153 147 154 154 143 121 113 108 110 119 121 117 112 117 130 138 145 150 151 145 134
281 6 277 57 157 139 172 180 179 176 156 154 160 158 148 137 131 128 117 114 113 111 117 118 118 119 115 114 121 129 132 130
285 185 152 150 139 130 129 119 148 161 189 154 156 152 145 137 134 126 122 118 117 116 114 114 114 118 119 116 118 123 126 127